Retour au catalogue

STARLINK-1133

ActifCommunicationsVLEO
NORAD 45064·PAYLOAD·🇺🇸 United States

Lancé Jan 29, 2020 depuis Cape Canaveral Space Force Station

Loading…

Prochains Passages (prochaines 24 heures)

TLE

FraisSource: CelesTrak SupGP

Époque: Sep 15, 2026, 01:24 UTC

1 45064C 20006W   26258.05881944  .00057128  00000+0  12725-2 0  2588
2 45064  53.1523  90.9048 0000232 134.1251 193.0446 15.42999884    11

Suivez STARLINK-1133 en temps réel avec AllMySat

Download on the App Store